Regional Weather Roundup
Issued by NWS Green Bay, WI

Home | Current Version | Previous Version | Graphics & Text | Print | Product List | Glossary Off
Versions: 1 2 3 4 5 6 7 8 9 10 11 12 13 14 15 16 17 18 19 20 21 22 23 24 25 26 27 28 29 30 31 32 33 34 35 36 37 38 39 40 41 42 43 44 45 46 47 48 49 50

000
ASUS43 KGRB 231000
RWRGRB

NORTH-CENTRAL AND NORTHEAST WISCONSIN REGIONAL WEATHER ROUNDUP
NATIONAL WEATHER SERVICE GREEN BAY WI
400 AM CST THU NOV 23 2017

WIZ005-009-010>012-018-019-231100-
NORTH CENTRAL WISCONSIN

CITY           SKY/WX    TMP DP  RH WIND       PRES   REMARKS
IRONWOOD       CLOUDY    25  18  74 SW6       29.91F
MANITOWISH WTR NOT AVBL
ARBOR VITAE    NOT AVBL
EAGLE RIVER    CLOUDY    24  19  81 SW6       29.89F
LAND O LAKES   NOT AVBL
RHINELANDER    CLOUDY    24  21  88 SW7       29.91F
PHILLIPS       CLOUDY    24  20  84 SW3       29.91F
ANTIGO         NOT AVBL
TOMAHAWK       NOT AVBL
MERRILL        MOCLDY    25  20  81 CALM      29.94F
$$

WIZ013-073-231100-
NORTHEAST WISCONSIN

CITY           SKY/WX    TMP DP  RH WIND       PRES   REMARKS
IRON MOUNTAIN  CLOUDY    27  18  69 SW3       29.91F
MARINETTE      CLOUDY    29  21  72 SW5       29.99F
$$

WIZ017-030-035>037-045-231100-
CENTRAL WISCONSIN

CITY           SKY/WX    TMP DP  RH WIND       PRES   REMARKS
MEDFORD        NOT AVBL
WAUSAU         CLOUDY    25  19  78 SE3       29.93F
MOSINEE        NOT AVBL
MARSHFIELD     CLOUDY    23  16  74 S3        29.92F
WISC RAPIDS    CLOUDY    28  18  66 CALM      29.96F
STEVENS POINT  NOT AVBL
WAUPACA        NOT AVBL
SHAWANO        CLOUDY    30  23  74 CALM      29.97F
CLINTONVILLE   NOT AVBL
WAUTOMA        CLOUDY    29  22  75 CALM      29.98S
$$

WIZ038-039-048-051-231100-
FOX VALLEY

CITY           SKY/WX    TMP DP  RH WIND       PRES   REMARKS
NWS GREEN BAY  CLOUDY    31  25  78 SW5       30.00F
APPLETON       NOT AVBL
OSHKOSH        CLOUDY    30  21  69 SW6       29.99S
FOND DU LAC    CLOUDY    32  19  58 SW7       29.98F
$$

WIZ022-050-052-231100-
EAST CENTRAL WISCONSIN

CITY           SKY/WX    TMP DP  RH WIND       PRES   REMARKS
EPHRAIM        NOT AVBL
WASHINGTON ISL NOT AVBL
STURGEON BAY   CLOUDY    29  23  78 SW8       29.99F
MANITOWOC      NOT AVBL
SHEBOYGAN      CLOUDY    31  22  69 S7        30.00S
$$

LMZ563-521-522-541>543-231100-
LAKESHORE

STATION/POSITION TIME  TEMP    WIND        PRES    VSBY  WAVE
                       AIR SEA DIR/SP/G                  HT/PER
                 (UTC) (F)     (DEG/KT/KT) (MB)    (MI)  (FT/S)
SHEBOYGAN LKSHOR 0900   32     200/ 10/ 12 1016.8F
KEWAUNEE LKSHORE 0930   30     210/  5/  6 1015.4F
NORTHPORT PIER   0940   31     230/  3/  9 1014.9F
N MID LAKE BUOY  0850   33 47  240/ 17/ 21 1016.6F         4/ 5
MENOMINEE LKSHOR 0930   29     210/  7/  9 1015.2F
$$




USA.gov is the U.S. government's official web portal to all federal, state and local government web resources and services.